Powrót do katalogu

YAOGAN 9A

AktywnyMilitariaLEO
NORAD 36413·PAYLOAD·🇨🇳 China

Wystrzelony Mar 5, 2010 z Jiuquan Satellite Launch Center

Loading…

Następne Przeloty (najbliższe 24 godziny)

TLE

ŚwieżeSource: Space-Track

Epoka: Sep 14, 2026, 14:16 UTC

1 36413U 10009A   26257.59498050 -.00000001  00000-0  62968-4 0  9996
2 36413  63.3623 126.8231 0545135  22.4622 339.9315 13.45716935812004

Śledź YAOGAN 9A w czasie rzeczywistym z AllMySat

Download on the App Store